Regional Weather Roundup
Issued by NWS

Home | Current Version | Previous Version | Text Only | Print | Product List | Glossary Off
Versions: 1 2 3 4 5 6 7 8 9 10 11 12 13 14 15 16 17 18 19 20 21 22 23 24 25 26 27 28 29 30 31 32 33 34 35 36 37 38 39 40 41 42 43 44 45 46 47 48 49 50

000
ASUS45 KBOI 280310
RWRID
WEATHER ROUNDUP FOR IDAHO
NATIONAL WEATHER SERVICE BOISE ID
900 PM MDT SUN JUL 27 2014

NOTE: "FAIR" INDICATES FEW OR NO CLOUDS BELOW 12000 FEET
WITH NO SIGNIFICANT WEATHER AND/OR OBSTRUCTIONS TO VISIBILITY

IDZ012-014-280400-
SOUTHWEST IDAHO


CITY           SKY/WX    TMP DP  RH WIND       PRES   REMARKS
BOISE          MOCLDY    93  41  16 NW6       29.98S
CALDWELL       MOCLDY    90  50  25 W6        29.98S
MOUNTAIN HOME  PTCLDY    95  25   8 N8        29.98S
$$

IDZ016-017-280400-
SOUTHCENTRAL IDAHO


CITY           SKY/WX    TMP DP  RH WIND       PRES   REMARKS
BURLEY         MOCLDY    79  49  34 SW5       30.07R
JEROME         MOCLDY    81  54  39 W8        30.08S
TWIN FALLS     CLOUDY    88  36  15 W7        30.08S
$$

IDZ019>023-280400-
SOUTHEAST IDAHO


CITY           SKY/WX    TMP DP  RH WIND       PRES   REMARKS
IDAHO FALLS    PTCLDY    86  33  15 E6        30.16S
POCATELLO      CLEAR     83  41  22 E5        30.12S
REXBURG        PTCLDY    78  45  30 E5        30.18R
$$

IDZ006-010-011-018-031-032-280400-
CENTRAL IDAHO MOUNTAINS


CITY           SKY/WX    TMP DP  RH WIND       PRES   REMARKS
MCCALL         CLEAR     81  37  20 NW6       30.18R
HAILEY         MOCLDY    81  43  26 CALM      30.19R
STANLEY          N/A     77  28  16 SW5       30.29R
SALMON         CLEAR     79  43  27 S5        30.06R
CHALLIS        PTCLDY    75  35  23 NW6       30.16R
$$

IDZ002-004-006-007-026-280400-
NORTHERN IDAHO


CITY           SKY/WX    TMP DP  RH WIND       PRES   REMARKS
LEWISTON       CLEAR     93  38  14 CALM      29.98S
LOWELL           N/A     74  56  53 CALM      30.00R
COEUR D`ALENE  PTCLDY    79  46  31 NE8       30.08S
MULLAN PASS    PTCLDY    70  33  25 CALM      30.35S
$$



USA.gov is the U.S. government's official web portal to all federal, state and local government web resources and services.